[[{"header":{"parameterUnit":"m.s-1","parameterCategory":1,"la1":30.2991,"la2":30.254,"lo1":-89.0895,"lo2":-89.0444,"dy":0.0017,"dx":0.0017,"nx":28,"ny":28,"refTime":"2024-11-29T09:00:00:Z","depth":0,"parameterNumber":2,"parameterNumberName":"U-component_of_WINDS"},"data":[0,0,0,0,0,0,0,0,0,0,0,0,0,0,0,0,0,0,0,0,0,0,0,0,0,0,0,0,0,0,0,0,0,0,0,0,0,0,0,0,0,0,0,0,0,0,0,0,0,0,0,0,0,0,0,0,0,0,-1.6439,-1.6439,0,-1.6495,-1.6495,-1.6496,-1.6472,-1.647,-1.6469,-1.6468,-1.6525,-1.6528,-1.653,0,0,0,0,0,0,0,0,0,0,0,0,0,-1.6309,-1.6312,-1.6439,-1.6439,-1.644,-1.6495,-1.6495,-1.6496,-1.6472,-1.647,-1.6469,-1.6467,-1.6524,-1.6527,-1.6531,0,0,0,0,0,0,0,0,0,0,0,0,0,-1.6365,-1.6312,-1.6438,-1.6434,-1.6435,-1.6494,-1.6495,-1.6496,-1.6472,-1.647,-1.6468,-1.6466,-1.6523,-1.6527,-1.6531,-1.6598,0,0,-1.6544,-1.6546,0,0,0,0,0,0,0,0,-1.6362,-1.637,-1.6434,-1.6435,-1.6435,-1.6474,-1.6471,-1.653,-1.6473,-1.6458,-1.6468,-1.6465,-1.651,-1.6515,-1.653,-1.6601,-1.6603,-1.6544,-1.6547,-1.6549,-1.655,0,0,0,0,0,0,0,-1.6358,-1.6368,-1.6461,-1.6435,-1.6436,-1.6429,-1.6435,-1.6482,-1.6495,-1.6459,-1.6457,-1.6464,-1.6509,-1.6526,-1.6531,-1.6604,-1.6544,-1.6548,-1.655,-1.6552,-1.6731,-1.6733,0,0,0,0,0,0,-1.6355,-1.6364,-1.6459,-1.6462,-1.6393,-1.6433,-1.644,-1.6464,-1.6494,-1.6497,-1.6466,-1.6463,-1.652,-1.6526,-1.6533,-1.6613,-1.6549,-1.6553,-1.6555,-1.6729,-1.6732,-1.6734,0,0,0,0,0,0,-1.6352,-1.6363,-1.6457,-1.6413,-1.6424,-1.6438,-1.6465,-1.6466,-1.6482,-1.6499,-1.6501,-1.6481,-1.6518,-1.6527,-1.6582,-1.6614,-1.6554,-1.6558,-1.6726,-1.673,-1.6733,-1.6773,0,0,0,0,0,0,-1.6348,-1.6362,-1.6388,-1.6414,-1.6427,-1.6505,-1.6467,-1.6468,-1.649,-1.6486,-1.6514,-1.6516,-1.6517,-1.6576,-1.6586,-1.6619,-1.6562,-1.6724,-1.6728,-1.6732,-1.6769,-1.6777,-1.6785,0,0,0,0,0,-1.6344,-1.6398,-1.639,-1.6401,-1.646,-1.6507,-1.6515,-1.6515,-1.6492,-1.6518,-1.6529,-1.6515,-1.6609,-1.6581,-1.6593,-1.6628,-1.6722,-1.6727,-1.6732,-1.6765,-1.6776,-1.6784,0,0,0,0,0,0,-1.6376,-1.6401,-1.6393,-1.6457,-1.648,-1.6503,-1.6536,-1.6526,-1.6557,-1.6552,-1.6551,-1.6557,-1.6614,-1.6626,-1.6595,-1.6693,-1.6662,-1.6669,-1.6683,-1.6693,-1.6701,-1.6697,-1.6565,0,0,0,0,0,-1.6391,-1.6427,-1.6447,-1.6501,-1.6514,-1.6523,-1.6543,-1.6542,-1.6566,-1.6576,-1.659,-1.6614,-1.6649,-1.6672,-1.6705,-1.677,-1.6775,-1.68,-1.6808,-1.6814,-1.6821,-1.6855,-1.6866,-1.6751,-1.6751,-1.6751,0,0,-1.6421,-1.6439,-1.6463,-1.6508,-1.6526,-1.6564,-1.6531,-1.6573,-1.66,-1.6582,-1.6634,-1.6646,-1.6672,-1.6733,-1.676,-1.6744,-1.6853,-1.682,-1.6825,-1.6829,-1.6861,-1.6872,-1.6882,-1.6754,-1.6754,-1.6753,0,0,-1.6496,-1.6514,-1.6561,-1.6579,-1.6606,-1.6612,-1.6623,-1.6647,-1.6654,-1.6707,-1.6693,-1.6726,-1.6786,-1.6805,-1.6822,-1.6903,-1.6891,-1.6913,-1.6955,-1.6988,-1.6997,-1.7005,-1.7034,-1.7044,-1.692,-1.692,-1.692,0,-1.6531,-1.6587,-1.6586,-1.6628,-1.6648,-1.6633,-1.6679,-1.6697,-1.6734,-1.6748,-1.673,-1.6804,-1.6821,-1.6885,-1.6904,-1.6919,-1.6932,-1.6911,-1.6996,-1.7004,-1.7012,-1.7038,-1.7049,-1.6922,-1.6922,-1.6922,-1.6922,0,-1.6628,-1.6667,-1.6701,-1.6737,-1.6761,-1.6805,-1.681,-1.6834,-1.683,-1.6837,-1.689,-1.6909,-1.6945,-1.696,-1.6957,-1.7024,-1.7013,-1.6996,-1.6964,-1.7025,-1.705,-1.7061,-1.6926,-1.6925,-1.6924,-1.6924,0,0,-1.6726,-1.6759,-1.6772,-1.6787,-1.6815,-1.6845,-1.6888,-1.6923,-1.6944,-1.6969,-1.7005,-1.7055,-1.7039,-1.7059,-1.7057,-1.7087,-1.7148,-1.7066,-1.7066,-1.708,-1.7222,-1.7235,-1.7247,-1.714,-1.7142,-1.7144,-1.722,0,-1.6803,-1.6879,-1.6878,-1.6948,-1.6983,-1.6968,-1.7005,-1.7026,-1.7034,-1.7065,-1.7073,-1.7108,-1.7084,-1.7096,-1.7125,-1.7135,-1.7177,-1.7129,-1.7173,-1.7175,-1.7167,-1.726,-1.7274,-1.7345,-1.723,-1.7231,-1.7232,0,-1.6903,-1.6931,-1.7004,-1.7026,-1.7041,-1.7074,-1.7106,-1.7135,-1.7158,-1.7162,-1.7183,-1.7176,-1.7219,-1.7186,-1.7245,-1.7213,-1.723,-1.7238,-1.724,-1.7245,-1.7207,-1.7267,-1.7368,-1.7378,-1.7248,-1.7247,-1.7246,0,-1.6967,-1.7023,-1.7074,-1.7087,-1.7114,-1.7138,-1.715,-1.7171,-1.7191,-1.7218,-1.7232,-1.7264,-1.7281,-1.7306,-1.7307,-1.7283,-1.7367,-1.7334,-1.737,-1.737,-1.7389,-1.7388,-1.7494,-1.74,-1.74,-1.74,-1.74,0,-1.7053,-1.7098,-1.7102,-1.7134,-1.7184,-1.7182,-1.7231,-1.7241,-1.7259,-1.7292,-1.7281,-1.7311,-1.7312,-1.7343,-1.7344,-1.7392,-1.7401,-1.7404,-1.7404,-1.7405,-1.7405,-1.7417,-1.7412,-1.7403,-1.7402,-1.7402,-1.7401,0,-1.7133,-1.7138,-1.7192,-1.7212,-1.7218,-1.7254,-1.7271,-1.73,-1.7306,-1.7347,-1.7357,-1.7366,-1.7402,-1.7406,-1.7448,-1.7449,-1.7507,-1.7501,-1.7499,-1.7498,-1.7534,-1.7531,-1.7652,-1.7668,-1.7564,-1.7565,-1.7566,0,-1.7188,-1.7222,-1.7246,-1.7266,-1.728,-1.7313,-1.7334,-1.7333,-1.7355,-1.7383,-1.7409,-1.7443,-1.7471,-1.7529,-1.7539,-1.7571,-1.7566,-1.7606,-1.7571,-1.757,-1.7566,-1.7564,-1.7567,-1.7613,-1.7614,-1.7615,-1.7616,0,-1.7284,-1.7285,-1.7315,-1.7345,-1.737,-1.7394,-1.7417,-1.7434,-1.7436,-1.7461,-1.7497,-1.7519,-1.7561,-1.7595,-1.7626,-1.7638,-1.7628,-1.7627,-1.7637,-1.7639,-1.7636,-1.7638,-1.7518,-1.7624,-1.7624,-1.7623,-1.7623,-1.7622,-1.7354,-1.7383,-1.7403,-1.7437,-1.7453,-1.7474,-1.7503,-1.7511,-1.7542,-1.7576,-1.7573,-1.7613,-1.7634,-1.7674,-1.7688,-1.7719,-1.7705,-1.772,-1.7724,-1.7728,-1.7731,-1.7631,-1.7725,-1.7724,-1.7724,-1.7724,-1.7724,0,-1.7449,-1.7461,-1.7492,-1.7523,-1.7549,-1.7536,-1.756,-1.7583,-1.7618,-1.7638,-1.7665,-1.7706,-1.7739,-1.7751,-1.7783,-1.7805,-1.7801,-1.7814,-1.7812,-1.7815,-1.7742,-1.773,-1.7817,-1.7817,-1.7816,-1.7816,-1.7816,-1.7816,-1.7502,-1.7551,-1.7553,-1.7609,-1.7621,-1.7659,-1.7674,-1.7693,-1.7709,-1.7755,-1.7782,-1.7789,-1.7806,-1.7839,-1.7868,-1.7871,-1.7883,-1.7898,-1.7898,-1.783,-1.782,-1.7811,-1.78,-1.79,-1.7901,-1.7969,-1.797,-1.797]},{"header":{"parameterUnit":"m.s-1","parameterCategory":1,"la1":30.2991,"la2":30.254,"lo1":-89.0895,"lo2":-89.0444,"dy":0.0017,"dx":0.0017,"nx":28,"ny":28,"refTime":"2024-11-29T09:00:00:Z","depth":0,"parameterNumber":3,"parameterNumberName":"V-component_of_WINDS"},"data":[0,0,0,0,0,0,0,0,0,0,0,0,0,0,0,0,0,0,0,0,0,0,0,0,0,0,0,0,0,0,0,0,0,0,0,0,0,0,0,0,0,0,0,0,0,0,0,0,0,0,0,0,0,0,0,0,0,0,-1.1815,-1.1816,0,-1.1884,-1.1884,-1.1885,-1.1921,-1.1921,-1.1921,-1.1921,-1.1993,-1.1995,-1.1996,0,0,0,0,0,0,0,0,0,0,0,0,0,-1.1717,-1.1719,-1.1815,-1.1816,-1.1817,-1.1883,-1.1884,-1.1885,-1.1921,-1.1921,-1.1921,-1.1921,-1.1992,-1.1994,-1.1996,0,0,0,0,0,0,0,0,0,0,0,0,0,-1.177,-1.1719,-1.1815,-1.1843,-1.1846,-1.1883,-1.1884,-1.1886,-1.1921,-1.1921,-1.1921,-1.1921,-1.1991,-1.1994,-1.1997,-1.2012,0,0,-1.2005,-1.2006,0,0,0,0,0,0,0,0,-1.1767,-1.1774,-1.1838,-1.1841,-1.1845,-1.1894,-1.1876,-1.1928,-1.1921,-1.1893,-1.1921,-1.1921,-1.196,-1.1965,-1.1978,-1.2016,-1.2019,-1.2006,-1.2007,-1.2008,-1.2009,0,0,0,0,0,0,0,-1.1763,-1.1771,-1.1842,-1.1839,-1.1843,-1.1852,-1.186,-1.1886,-1.1925,-1.1895,-1.1898,-1.1905,-1.1962,-1.1975,-1.198,-1.202,-1.2005,-1.2008,-1.201,-1.2011,-1.2074,-1.2074,0,0,0,0,0,0,-1.1755,-1.1767,-1.184,-1.1844,-1.1805,-1.1854,-1.1862,-1.1878,-1.1925,-1.1932,-1.1905,-1.1907,-1.197,-1.1977,-1.1982,-1.2004,-1.2008,-1.2011,-1.2013,-1.2074,-1.2074,-1.2074,0,0,0,0,0,0,-1.1753,-1.1761,-1.1837,-1.1807,-1.1817,-1.1856,-1.1873,-1.1879,-1.1893,-1.1932,-1.194,-1.1912,-1.1971,-1.1979,-1.2005,-1.2007,-1.2012,-1.2015,-1.2074,-1.2074,-1.2074,-1.2046,0,0,0,0,0,0,-1.175,-1.176,-1.1766,-1.1807,-1.1819,-1.1858,-1.1873,-1.1881,-1.1897,-1.19,-1.194,-1.1947,-1.1971,-1.2,-1.2007,-1.2011,-1.2017,-1.2074,-1.2074,-1.2074,-1.2047,-1.2045,-1.2044,0,0,0,0,0,-1.1746,-1.1756,-1.1766,-1.1775,-1.1827,-1.1858,-1.1865,-1.1892,-1.1897,-1.1904,-1.1929,-1.1946,-1.2005,-1.2003,-1.2011,-1.2015,-1.2074,-1.2074,-1.2074,-1.2048,-1.2046,-1.2044,0,0,0,0,0,0,-1.1714,-1.1761,-1.1773,-1.1796,-1.1823,-1.1864,-1.1873,-1.1889,-1.1914,-1.1916,-1.1949,-1.1958,-1.1981,-1.2001,-1.1997,-1.2033,-1.2041,-1.2043,-1.2019,-1.2017,-1.2015,-1.201,-1.2019,0,0,0,0,0,-1.171,-1.1731,-1.1771,-1.1787,-1.18,-1.1834,-1.1849,-1.1867,-1.1896,-1.1907,-1.1935,-1.1963,-1.1988,-1.2004,-1.2029,-1.205,-1.206,-1.2057,-1.2056,-1.2054,-1.2055,-1.2068,-1.2068,-1.2074,-1.2074,-1.2074,0,0,-1.1701,-1.173,-1.1741,-1.1782,-1.1804,-1.1826,-1.1843,-1.1865,-1.1881,-1.1911,-1.1937,-1.1958,-1.1991,-1.2015,-1.2027,-1.2033,-1.2056,-1.2054,-1.2053,-1.2055,-1.2068,-1.2068,-1.2067,-1.2074,-1.2074,-1.2074,0,0,-1.1696,-1.172,-1.1736,-1.1758,-1.1792,-1.1815,-1.1819,-1.1857,-1.1872,-1.1899,-1.1922,-1.1942,-1.1984,-1.2007,-1.2024,-1.2028,-1.2045,-1.2036,-1.2027,-1.2039,-1.2039,-1.2038,-1.204,-1.204,-1.2037,-1.2036,-1.2036,0,-1.1681,-1.1714,-1.1742,-1.1763,-1.178,-1.1808,-1.1825,-1.1845,-1.1886,-1.1898,-1.1903,-1.1957,-1.1981,-1.2011,-1.2012,-1.2025,-1.203,-1.2031,-1.2036,-1.2036,-1.2037,-1.2038,-1.2039,-1.2035,-1.2035,-1.2035,-1.2036,0,-1.1694,-1.1716,-1.1725,-1.1763,-1.1782,-1.18,-1.1832,-1.1848,-1.1865,-1.1887,-1.1914,-1.1944,-1.1976,-1.1984,-1.2002,-1.2017,-1.2019,-1.203,-1.2039,-1.2034,-1.2036,-1.2037,-1.2033,-1.2034,-1.2034,-1.2034,0,0,-1.167,-1.1724,-1.1727,-1.1745,-1.1784,-1.1802,-1.1822,-1.1853,-1.1866,-1.1893,-1.1911,-1.1946,-1.1957,-1.1976,-1.1996,-1.2007,-1.2009,-1.2017,-1.2018,-1.2014,-1.2027,-1.2019,-1.2019,-1.202,-1.202,-1.202,-1.2025,0,-1.1671,-1.1708,-1.1734,-1.1761,-1.1782,-1.1809,-1.1826,-1.1853,-1.1874,-1.1896,-1.192,-1.1944,-1.1956,-1.1968,-1.198,-1.2006,-1.2012,-1.2006,-1.2037,-1.2038,-1.2028,-1.202,-1.2011,-1.2014,-1.2026,-1.2026,-1.2026,0,-1.1676,-1.1702,-1.1731,-1.1768,-1.1778,-1.1793,-1.1824,-1.1844,-1.1875,-1.189,-1.1911,-1.1932,-1.1955,-1.1962,-1.1995,-1.199,-1.2005,-1.2019,-1.202,-1.2024,-1.2031,-1.2024,-1.2015,-1.2016,-1.2028,-1.2028,-1.2027,0,-1.1656,-1.1698,-1.1721,-1.1735,-1.178,-1.179,-1.1809,-1.184,-1.1857,-1.1884,-1.1895,-1.1925,-1.1941,-1.1963,-1.1991,-1.1994,-1.2021,-1.2031,-1.2034,-1.2034,-1.2039,-1.2038,-1.2032,-1.2048,-1.2048,-1.2048,-1.2048,0,-1.1654,-1.167,-1.1713,-1.1726,-1.1746,-1.1776,-1.1795,-1.1816,-1.1844,-1.1863,-1.1888,-1.1906,-1.1942,-1.1964,-1.1986,-1.201,-1.2017,-1.203,-1.2036,-1.2028,-1.2026,-1.2037,-1.2038,-1.2048,-1.2048,-1.2048,-1.2048,0,-1.1634,-1.1663,-1.169,-1.173,-1.174,-1.1753,-1.1787,-1.1802,-1.1825,-1.1849,-1.1856,-1.1892,-1.1919,-1.195,-1.1987,-1.2003,-1.2025,-1.2033,-1.2014,-1.2017,-1.2019,-1.2018,-1.2021,-1.2022,-1.2037,-1.2036,-1.2036,0,-1.1631,-1.1644,-1.1685,-1.17,-1.1718,-1.1741,-1.1758,-1.1789,-1.1806,-1.1843,-1.1853,-1.1882,-1.1907,-1.1949,-1.1979,-1.2008,-1.2018,-1.2016,-1.2022,-1.2014,-1.2018,-1.2016,-1.2018,-1.2014,-1.2014,-1.2014,-1.2014,0,-1.1621,-1.1635,-1.1659,-1.1688,-1.1707,-1.1732,-1.1757,-1.1768,-1.1804,-1.1822,-1.185,-1.1869,-1.1907,-1.1936,-1.1969,-1.1989,-1.2008,-1.2012,-1.2014,-1.2006,-1.1994,-1.2001,-1.2009,-1.2011,-1.2012,-1.2012,-1.2012,-1.2012,-1.161,-1.1623,-1.1654,-1.168,-1.1702,-1.1725,-1.1741,-1.1766,-1.179,-1.1823,-1.184,-1.1868,-1.1899,-1.1945,-1.1965,-1.1987,-1.1993,-1.1997,-1.1998,-1.1998,-1.1996,-1.1991,-1.1994,-1.1994,-1.1994,-1.1994,-1.1994,0,-1.1602,-1.1623,-1.1646,-1.1681,-1.1701,-1.1716,-1.1746,-1.1762,-1.1786,-1.1813,-1.1837,-1.1869,-1.1897,-1.193,-1.196,-1.1972,-1.1981,-1.1979,-1.1978,-1.1983,-1.1989,-1.1984,-1.1971,-1.1971,-1.1971,-1.1971,-1.1971,-1.1971,-1.16,-1.1622,-1.164,-1.1674,-1.1696,-1.1723,-1.1738,-1.176,-1.1782,-1.1817,-1.184,-1.1861,-1.1891,-1.1924,-1.195,-1.1959,-1.1969,-1.1964,-1.1976,-1.198,-1.1982,-1.1984,-1.1979,-1.1966,-1.1966,-1.1968,-1.1968,-1.1968]}]]